ヒル彗星

232P/Hill (2009)

English version
Home page
Updated on October 3, 2010

---------------------------------------------------------------------

・ プロフィール

符号 232P/2009 W1
発見日 2009年11月18日
発見光度 18.5等
発見者 R. E. Hill (Catalina Sky Survey)

・ 写真集

・ 軌道要素

Epoch 2009 Oct. 16.0 TT = JDT 2455120.5
T 2009 Oct. 1.53704 TT                                  MPC
q   2.9831547            (2000.0)            P               Q
n   0.10382870     Peri.   53.42959     -0.31338530     -0.92615674
a   4.4832310      Node    56.14440     +0.77042710     -0.37713840
e   0.3345971      Incl.   14.63479     +0.55518622     +0.00056510
P   9.49

・ 光度変化

        m1 = 4.0 + 5 logΔ + 25 log r

---------------------------------------------------------------------

軌道要素はM.P.E.C. 2009-Y21に掲載されたものです。
光度グラフはComet for Windowsで作成したものです。

---------------------------------------------------------------------

Copyright(C) Seiichi Yoshida (comet@aerith.net). All rights reserved.